Showing default

LKW-4, 43236

Orbit data source: Space-Track

LKW-4, 43236 is a Chinese payload satellite in SSO that was launched on Sat, 17 Mar 2018 UTC via a CHANG ZHENG 2D launch vehicle from the Jiuquan Satellite Launch Center, China (JSC). Payloads include a variety of satellites, spacecraft, and rockets equipped with specific instruments for various scientific and technological missions. These include communications satellites like Starlink; space stations such as the ISS; scientific satellites like the Hubble; Earth observation satellites from companies like Planet Labs, Umbra, and HawkEye 360; GPS; miniature CubeSats for education and research; and military/defense satellites.

Loading next visibility...
LKW-4 details
Identifier
43236, 2018-025A
Orbit
SSO
Last TLE update10 hours ago
Origin
Flag of CNZLZB/GCDX? (CN / PRC)
ManufacturerCAST?
MissionOperational Defense Imaging
Bus & MotorLKW, Unknown motor
Mass~2,000 kg wet, ~2,000 kg dry
Launch date (UTC)
2018-03-17 (7 years ago)
Launch vehicle
CHANG ZHENG 2D
Launch site
Jiuquan Satellite Launch Center, China (JSC)
Object type
Payload
Rocket body
Debris
Shape & HBRHex Cyl + 3 Pan, 10 m
Radar Cross Section8.135 m², Large (>1 m²)

Expand to show TLE details & history

TLE from 10 hours ago
0 LKW-4
1 43236U 18025A   24361.27483951  .00023639  00000-0  79065-3 0  9992
2 43236  97.5769 135.9673 0005166  84.3247 275.8582 15.30974348377001
Epoch: 2024-12-26T06:35Z
Definitive object data (Epoch: 2024-12-26T06:35:46.133Z)
Latitude-0.00009°
Longitude-58.23149°
Altitude475.645 km
Speed7.628 km/s
True Right ascension09h 03m 52s
True Declination0° 00' 00"
Sunlit
Object was in full shadow at TLE epoch
Visualization TLE readout
Latitude34.54976°
Longitude-63.05062°
Altitude475.175 km
Speed7.633 km/s
Apparent Right ascension06h 21m 23s
Apparent Declination-1° 25' 45"
Sunlit
Object is in full shadow
Visualization observer readout
Local Sidereal Time15:31:40
Azimuth303.964° NW
Elevation-35.586°
Doppler factor1
Orbital elements
Apogee altitude473.4 km
Perigee altitude466.325 km
Semi-major axis6,848 km
Eccentricity0.0005166
Inclination97.5769°
RAAN135.9673°
Arg. of periapsis84.3247°
True anomaly275.79931°
Mean anomaly275.8582°
Eccentric anomaly275.82875°
Mean motion3.82999 °/min
BSTAR0.00079065
Orbital period94 mins
Loading maneuver chart data...
Loading historical data...
Loading historical data...
Loading historical data...
Loading historical data...
Loading historical data...
Loading historical data...
Loading historical data...

LKW-4 Visibility forecast

Observer location: undefined°, undefined

Span
Click to sort rows by Start time (UTC) header in descending order
Start Az.
Max El. time (UTC)
Max El. Az.
Max El.
End time (UTC)
End Az.
4 mins2024-12-26 21:17:32.575Z53.47° ENE2024-12-26 21:19:32.575Z92.253° ESE17.817°2024-12-26 21:21:32.575Z133.145° SE
5 mins2024-12-27 09:24:32.575Z182.151° SSW2024-12-27 09:26:32.575Z301.282° NW41.339°2024-12-27 09:29:32.575Z342.499° N
|